Location: El Centro
(32.7920°N, 115.5620°W)
Time: 16:49:27
(UTC-08:00)

Hamsat - Visible Passes

Search period start: 22 November 2014 00:00
Search period end: 02 December 2014 00:00
Orbit: 592 x 627 km, 97.6° (Epoch: 21 November)

Date Brightness Start Highest point End Pass type
(mag) Time Alt. Az. Time Alt. Az. Time Alt. Az.
22 Nov ? 04:18:12 10° ENE 04:20:01 12° E 04:21:50 10° ESE visible
22 Nov ? 05:51:59 10° N 05:56:06 43° WNW 06:00:12 10° SW visible
23 Nov ? 04:31:11 10° NE 04:34:13 18° E 04:37:15 10° SE visible
24 Nov ? 04:44:41 10° NE 04:48:23 27° E 04:52:04 10° SSE visible
24 Nov ? 17:08:39 10° S 17:12:40 47° W 17:16:44 10° NNW visible
25 Nov ? 04:58:25 10° NNE 05:02:31 40° E 05:06:36 10° SSE visible
25 Nov ? 17:23:04 10° SSW 17:26:47 31° W 17:30:33 10° NW visible
26 Nov ? 05:12:18 10° NNE 05:16:36 61° E 05:20:54 10° S visible
26 Nov ? 17:37:44 10° SW 17:40:55 21° W 17:44:08 10° NW visible
27 Nov ? 05:26:18 10° N 05:30:40 89° WNW 05:35:01 10° SSW visible
27 Nov ? 17:52:49 10° SW 17:55:04 14° W 17:57:20 10° WNW visible
28 Nov ? 05:40:25 10° N 05:44:42 59° WNW 05:48:58 10° SSW visible
29 Nov ? 04:20:25 10° ENE 04:22:40 14° E 04:24:54 10° SE visible
29 Nov ? 05:54:38 10° N 05:58:42 39° WNW 06:02:44 10° SW visible
30 Nov ? 04:33:33 10° NE 04:36:48 20° E 04:40:02 10° SE visible
30 Nov ? 16:56:55 10° S 17:01:04 66° W 17:05:17 10° NNW visible
01 Dec ? 04:47:04 10° NE 04:50:54 30° E 04:54:42 10° SSE visible
01 Dec ? 17:11:08 10° S 17:15:07 43° W 17:19:10 10° NNW visible
